Flag for Australia Weather past 2 weeks in Toowoomba, Queensland, Australia

Now
45 °F

Quite cool.


Feels Like: 42 °F
Forecast: 48 / 67 °F
Wind: 6 mph from Northeast

Location: Oakey Aerodrome

Current Time: Aug 1, 2014 at 6:35:28 AM

Latest Report: Aug 1, 2014 at 4:00 AM


Visibility: N/A

Pressure: 30.02 "Hg

Humidity: 86%

Dew point: 41 °F

Location of ToowoombaLocation

Historic Weather in Toowoomba — Graph

°F

Toowoomba temperature yesterday

Maximum temperature yesterday: 74 °F (at 3:00 PM)
Minimum temperature yesterday: 31 °F (at 6:00 AM)
Average temperature yesterday: 52 °F

Past Weeks' High & Low Weather Summary

 TemperatureHumidityPressure
High74 °F (Jul 31, 3:00 PM)100% (Jul 17, 4:00 AM)30.35 "Hg (Jul 17, 4:00 AM)
Low27 °F (Jul 29, 6:00 AM)14% (Jul 30, 4:00 PM)29.99 "Hg (Jul 18, 4:00 AM)
Average51 °F65%30.18 "Hg
* Reported Jul 17 4:00 AM — Aug 1 4:00 AM, Toowoomba, Weather by CustomWeather, © 2014

Note: Actual official high and low records may vary slightly from our data, if they occured in-between our weather recording intervals... More about our weather records

Advertising

Toowoomba weather history for previous 24 hours

 ConditionsComfort  
Time TempWeatherWind HumidityBarometerVisibility
4:00 AM
Aug 1
45 °FQuite cool.6 mph86%30.02 "HgN/A
3:00 AM52 °FCool.6 mph75%30.02 "HgN/A
1:00 AM57 °FCool.6 mph72%30.03 "HgN/A
12:00 AM56 °FCool.6 mph67%30.04 "HgN/A
10:00 PM
Jul 31
46 °FCool.6 mph62%30.06 "HgN/A
9:00 PM46 °FCool.6 mph57%30.06 "HgN/A
7:00 PM56 °FRefreshingly cool.9 mph46%30.04 "HgN/A
6:00 PM63 °FMild.8 mph37%30.02 "HgN/A
4:00 PM72 °FMild.12 mph26%30.02 "HgN/A
3:00 PM74 °FMild.13 mph26%30.02 "HgN/A
1:00 PM72 °FMild.13 mph25%30.08 "HgN/A
12:00 PM71 °FMild.13 mph31%30.12 "HgN/A
10:00 AM67 °FMild.13 mph36%30.19 "HgN/A
9:00 AM56 °FRefreshingly cool.5 mph39%30.21 "HgN/A
7:00 AM35 °FChilly.No wind73%30.18 "HgN/A
6:00 AM31 °FChilly.5 mph75%30.15 "HgN/A
Weather by CustomWeather, © 2014

See weather overviewHow to use our weather pages